Terminal Aerodrome Forecast
Issued by NWS Billings, MT

Home | Current Version | Previous Version | Text Only | Print | Product List | Glossary On
Versions: 1 2 3 4 5 6 7 8 9 10 11 12 13 14 15 16 17 18 19 20 21 22 23 24 25 26 27 28 29 30 31 32 33 34 35
000
FTUS45 KBYZ 210056 AAA
TAFBIL
TAF AMD
KBIL 210056Z 2101/2124 08005KT P6SM VCTS SCT090CB
     FM210115 27020G35KT P6SM VCTS SCT080CB BKN120
     FM210200 11005KT P6SM VCSH SCT060 BKN100
     FM211200 31011KT P6SM -RA FEW030 OVC050
     FM211800 36012KT P6SM VCSH BKN050
     FM212100 09008KT P6SM VCSH BKN045=

USA.gov is the U.S. government's official web portal to all federal, state and local government web resources and services.